Monterey, CA

1:35 PM PDT on May 25, 2017 (GMT -0700)
Monterey Peninsula

Weather History for KMRY - December, 2013

Change the Weather History Date:

Friday, December 6, 2013

  Actual Average Record
Temperature  
Mean Temperature 45 °F 52 °F  
Max Temperature 54 °F 61 °F 69 °F (2006)
Min Temperature 36 °F 43 °F 36 °F (2005)
Degree Days  
Heating Degree Days 20    
Month to date heating degree days 104  
Since 1 July heating degree days 871  
Cooling Degree Days 0    
Month to date cooling degree days 0  
Year to date cooling degree days 49  
Moisture  
Dew Point 34 °F    
Average Humidity 56    
Maximum Humidity 68    
Minimum Humidity 44    
Precipitation  
Precipitation 0.02 in - 0.69 in (1950)
Month to date precipitation 0.03  
Year to date precipitation 4.19  
Since 1 July precipitation 1.04  
Sea Level Pressure  
Sea Level Pressure 30.17 in    
Wind  
Wind Speed 6 mph (SSE)    
Max Wind Speed 18 mph    
Max Gust Speed 28 mph    
Visibility 10 miles    
Events Rain    
T = Trace of Precipitation, MM = Missing Value Source: NWS Daily Summary

Daily Weather History Graph

Daily Weather History Graph

Search for Another Location

Airport or City:

Trip Planner

Search our weather history database for the weather conditions in past years. The results will help you decide how hot, cold, wet, or windy it might be!

Date:

Astronomy

Dec. 06, 2013 Rise Set
Actual Time 7:05 AM PST 4:51 PM PST
Civil Twilight 6:37 AM PST 5:20 PM PST
Nautical Twilight 6:04 AM PST 5:52 PM PST
Astronomical Twilight 5:33 AM PST 6:23 PM PST
Moon 10:18 AM PST (12/6) 9:24 PM PST (12/6)
Length of Visible Light 10h 42m
Length of Day
9h 45m
Waxing Crescent, 20% of the Moon is Illuminated
Dec 6
Waxing Crescent
Dec 9
First Quarter
Dec 17
Full
Dec 25
Last Quarter
Jan 1
New

Hourly Weather History & Observations

Time (PST) Temp. Windchill Dew Point Humidity Pressure Visibility Wind Dir Wind Speed Gust Speed Precip Events Conditions
12:54 AM 39.0 °F - 27.0 °F 62% 30.21 in 10.0 mi Calm Calm - N/A   Clear
1:54 AM 39.0 °F 35.7 °F 27.0 °F 62% 30.22 in 10.0 mi ESE 4.6 mph - N/A   Clear
2:54 AM 37.0 °F 34.5 °F 26.1 °F 65% 30.22 in 10.0 mi East 3.5 mph - N/A   Clear
3:54 AM 39.0 °F 35.7 °F 27.0 °F 62% 30.22 in 10.0 mi ESE 4.6 mph - N/A   Partly Cloudy
4:54 AM 39.0 °F 33.4 °F 27.0 °F 62% 30.20 in 10.0 mi East 8.1 mph - N/A   Clear
5:54 AM 39.0 °F 34.0 °F 27.0 °F 62% 30.21 in 10.0 mi East 6.9 mph - N/A   Clear
6:54 AM 39.9 °F 33.9 °F 28.0 °F 63% 30.21 in 10.0 mi East 9.2 mph - N/A   Clear
7:54 AM 41.0 °F 35.8 °F 30.0 °F 65% 30.23 in 10.0 mi East 8.1 mph - N/A   Clear
8:54 AM 46.9 °F - 32.0 °F 56% 30.23 in 10.0 mi SE 4.6 mph - N/A   Clear
9:54 AM 50.0 °F - 34.0 °F 54% 30.24 in 10.0 mi Calm Calm - N/A   Clear
10:54 AM 52.0 °F - 34.0 °F 50% 30.25 in 10.0 mi Calm Calm - N/A   Clear
11:54 AM 52.0 °F - 33.1 °F 49% 30.22 in 10.0 mi Variable 4.6 mph - N/A   Clear
12:54 PM 52.0 °F - 33.1 °F 49% 30.21 in 10.0 mi WNW 6.9 mph - N/A   Clear
1:54 PM 52.0 °F - 30.0 °F 43% 30.18 in 10.0 mi West 4.6 mph - N/A   Partly Cloudy
2:54 PM 52.0 °F - 30.9 °F 45% 30.18 in 10.0 mi WSW 5.8 mph - N/A   Overcast
3:54 PM 52.0 °F - 33.1 °F 49% 30.18 in 10.0 mi SW 8.1 mph - N/A   Overcast
4:54 PM 50.0 °F - 35.1 °F 57% 30.17 in 10.0 mi SSE 3.5 mph - N/A   Mostly Cloudy
5:54 PM 50.0 °F - 34.0 °F 54% 30.16 in 10.0 mi Calm Calm - N/A   Overcast
6:54 PM 48.9 °F - 37.9 °F 66% 30.14 in 10.0 mi Calm Calm - N/A   Overcast
7:54 PM 50.0 °F - 39.9 °F 68% 30.12 in 10.0 mi South 8.1 mph - N/A   Overcast
8:54 PM 51.1 °F - 41.0 °F 68% 30.11 in 10.0 mi Variable 6.9 mph - N/A   Mostly Cloudy
9:54 PM 51.1 °F - 43.0 °F 74% 30.10 in 10.0 mi South 9.2 mph - 0.00 in Rain Light Rain
10:54 PM 51.1 °F - 45.0 °F 80% 30.07 in 10.0 mi South 11.5 mph 18.4 mph 0.01 in   Overcast
11:49 PM 51.8 °F - 46.4 °F 82% 30.01 in 9.0 mi SSW 15.0 mph 26.5 mph 0.01 in Rain Light Rain
11:54 PM 51.1 °F - 46.0 °F 83% 30.04 in 10.0 mi South 18.4 mph 24.2 mph 0.01 in Rain Light Rain